This is the latest recevied weather packets stored in our database for station/object IU1TLK-10. If no packets are shown the sender has not sent any weather packets the latest 10 day(s).
| Time | Temp. | Humidity | Pressure | Rain* | Wind** | Luminosity | Snow |
|---|---|---|---|---|---|---|---|
| 1777641508 | 15° C | 34% | 1029.2 hPa | - | - | - | - |
| 1777639708 | 15° C | 38% | 1029.6 hPa | - | - | - | - |
| 1777637907 | 13.89° C | 37% | 1030 hPa | - | - | - | - |
| 1777636107 | 13.89° C | 36% | 1030.2 hPa | - | - | - | - |
| 1777634307 | 13.33° C | 38% | 1030.3 hPa | - | - | - | - |
| 1777632506 | 12.22° C | 39% | 1030.4 hPa | - | - | - | - |
| 1777630706 | 11.67° C | 41% | 1030.4 hPa | - | - | - | - |
| 1777628906 | 11.67° C | 45% | 1030.4 hPa | - | - | - | - |
| 1777627106 | 11.11° C | 45% | 1030.3 hPa | - | - | - | - |
| 1777625307 | 10.56° C | 46% | 1030.3 hPa | - | - | - | - |
| 1777623507 | 10.56° C | 47% | 1029.9 hPa | - | - | - | - |
| 1777621707 | 10° C | 55% | 1029.8 hPa | - | - | - | - |
| 1777619907 | 10° C | 55% | 1029.5 hPa | - | - | - | - |
| 1777618107 | 9.44° C | 55% | 1029.3 hPa | - | - | - | - |
| 1777616306 | 9.44° C | 62% | 1029 hPa | - | - | - | - |
| 1777614506 | 9.44° C | 62% | 1028.8 hPa | - | - | - | - |
| 1777612706 | 9.44° C | 65% | 1028.4 hPa | - | - | - | - |
| 1777610906 | 9.44° C | 65% | 1027.9 hPa | - | - | - | - |
| 1777609106 | 9.44° C | 65% | 1027.8 hPa | - | - | - | - |
| 1777607305 | 9.44° C | 65% | 1027.7 hPa | - | - | - | - |
| 1777605505 | 9.44° C | 64% | 1027.5 hPa | - | - | - | - |
| 1777603707 | 9.44° C | 64% | 1027.4 hPa | - | - | - | - |
| 1777601907 | 9.44° C | 63% | 1027.5 hPa | - | - | - | - |
| 1777600107 | 10° C | 63% | 1027.4 hPa | - | - | - | - |
| 1777598307 | 10° C | 63% | 1027.2 hPa | - | - | - | - |
* Rain since midnight (hover to see other rain measurements)
** Current wind speed in m/s (hover to see current wind gust speed)